Location: Castellar de la Frontera
(36.3200°N, 5.4500°W)
Time: 05:41:38
(UTC+01:00)

ISS - Visible Passes

Search period start: 19 November 2018 00:00
Search period end: 29 November 2018 00:00
Orbit: 401 x 408 km, 51.6° (Epoch: 19 November)

Date Brightness Start Highest point End Pass type
(mag) Time Alt. Az. Time Alt. Az. Time Alt. Az.
21 Nov -1.9 19:28:36 10° S 19:30:18 16° SE 19:30:18 16° SE visible
22 Nov -2.0 20:11:40 10° SW 20:13:27 30° SW 20:13:27 30° SW visible
23 Nov -3.5 19:19:41 10° SSW 19:22:49 47° SE 19:23:49 33° E visible
24 Nov -2.1 20:04:14 10° W 20:06:46 29° NW 20:06:46 29° NW visible
25 Nov -3.5 19:11:44 10° WSW 19:14:57 59° NW 19:16:56 21° NE visible
26 Nov -1.4 19:57:26 10° WNW 19:59:33 16° NNW 19:59:42 16° NNW visible
27 Nov -2.0 19:04:25 10° W 19:07:10 25° NNW 19:09:43 11° NNE visible
